This is the latest recevied weather packets stored in our database for station/object N7WSS. If no packets are shown the sender has not sent any weather packets the latest 1 day(s).
| Time | Temp. | Humidity | Pressure | Rain* | Wind** | Luminosity | Snow |
|---|---|---|---|---|---|---|---|
| 1777974502 | 13.89° C | 93% | 1010.9 hPa | 0 mm | 2.24 m/s, 228° | - | - |
| 1777974199 | 13.89° C | 93% | 1011.1 hPa | 1.27 mm | 0.89 m/s, 264° | - | - |
| 1777973894 | 13.89° C | 93% | 1010.9 hPa | 1.27 mm | 0.89 m/s, 274° | - | - |
| 1777973592 | 13.33° C | 93% | 1011.2 hPa | 0 mm | 0.89 m/s, 282° | - | - |
| 1777973288 | 13.89° C | 93% | 1011.6 hPa | 1.78 mm | 1.79 m/s, 278° | - | - |
| 1777972987 | 13.89° C | 93% | 1011.7 hPa | 1.78 mm | 0.45 m/s, 309° | - | - |
| 1777972684 | 13.89° C | 93% | 1011.6 hPa | 1.27 mm | 0.89 m/s, 258° | - | - |
| 1777972382 | 13.89° C | 93% | 1011.8 hPa | 1.27 mm | 0.89 m/s, 197° | - | - |
| 1777972080 | 13.89° C | 93% | 1012 hPa | 1.78 mm | 0.89 m/s, 324° | - | - |
| 1777971778 | 13.89° C | 93% | 1012.4 hPa | 1.78 mm | 0 m/s | - | - |
| 1777971475 | 13.89° C | 93% | 1012.6 hPa | 1.78 mm | 0.45 m/s, 201° | - | - |
| 1777971173 | 13.89° C | 93% | 1012.6 hPa | 1.78 mm | 0.45 m/s, 291° | - | - |
| 1777970870 | 13.89° C | 92% | 1012.6 hPa | 1.27 mm | 0.45 m/s, 275° | - | - |
| 1777970569 | 13.89° C | 92% | 1012.9 hPa | 1.27 mm | 0.45 m/s, 278° | - | - |
| 1777970265 | 13.89° C | 92% | 1013.1 hPa | 1.78 mm | 0 m/s | - | - |
| 1777969962 | 13.89° C | 92% | 1013 hPa | 1.78 mm | 0 m/s | - | - |
| 1777969658 | 13.89° C | 92% | 1013.1 hPa | 1.27 mm | 0.89 m/s, 268° | - | - |
| 1777969356 | 13.89° C | 92% | 1013.2 hPa | 3.05 mm | 0 m/s | - | - |
| 1777969052 | 13.89° C | 92% | 1013.3 hPa | 1.78 mm | 0.89 m/s, 274° | - | - |
| 1777968749 | 13.89° C | 92% | 1013.3 hPa | 1.27 mm | 0 m/s | - | - |
| 1777968446 | 13.89° C | 91% | 1013.5 hPa | 3.05 mm | 0 m/s | - | - |
| 1777968141 | 13.89° C | 91% | 1013.5 hPa | 1.27 mm | 0 m/s | - | - |
| 1777967837 | 13.89° C | 91% | 1013.8 hPa | 1.27 mm | 0 m/s | - | - |
| 1777967535 | 13.89° C | 91% | 1013.7 hPa | 1.78 mm | 0 m/s | - | - |
| 1777967232 | 13.89° C | 91% | 1013.8 hPa | 1.27 mm | 0 m/s | - | - |
* Rain latest hour (hover to see other rain measurements)
** Current wind speed in m/s (hover to see current wind gust speed)